Tracking 35036 objects as of 15-Aug-2026
HD Live streaming from Space Station
objects crossing your sky now

QIANFAN-231

Track QIANFAN-231 now!
10-day predictions
QIANFAN-231 is classified as:


NORAD ID: 69860
Int'l Code: 2026-155N
Launch date: July 5, 2026
Source: People's Republic of China (PRC)
Launch site: Wenchang Satellite Launch Center (WSC)
Your satellite tracking list
Your tracking list is empty




NASA's NSSDC Master Catalog

Two Line Element Set (TLE):
1 69860U 26155N   26226.92261459 -.02014567  00000-0 -15860+1 0  9991
2 69860  89.0045  57.4905 0038651 110.8373 249.6949 13.95491206  5731
Source of the keplerian elements: AFSPC